User: anonymous   Login
Location: Unspecified
(0.0000°N, 0.0000°E)
Time: 02:21:59
(UTC+02:00)
Language:

Cosmos 1536 - Orbit

View from above orbital plane
View from above orbital plane
View from above satellite
View from above satellite

Ground track
Ground track

The orbit data is extracted from the following two-line orbital elements,

1 14699U 84013A   15148.95911308  .00000684  00000-0  47517-4 0  9996
2 14699 082.5248 335.3472 0014730 093.4679 266.8233 15.03886306700287
Epoch (UTC): 28 May 2015 23:01:07
Eccentricity: 0.0014730
inclination: 82.5248°
perigee height: 545 km
apogee height: 565 km
right ascension of ascending node: 335.3472°
argument of perigee: 93.4679°
revolutions per day: 15.03886306
mean anomaly at epoch: 266.8233°
orbit number at epoch: 70028

The dashed part of the orbit path shows where the satellite is in the earth's shadow,  

DLR